FW4597 Weather Reports


Display with metric or nautical units.
time (UTC)temp
F
wind
direction
speed
MPH
gust
MPH
rain 1hr
in
rain 24hr
in
rain mn
in
humidity
%
barometer
mb
20260507191724 63 321 0.0 1.0 0.00 0.16 0.08 33 1003.6
20260507191225 63 198 0.0 1.0 0.00 0.16 0.08 33 1003.7
20260507190724 64 338 0.0 1.0 0.00 0.16 0.08 29 1003.8
20260507190225 64 14 0.0 1.0 0.00 0.16 0.08 32 1003.7
20260507185725 63 355 0.0 1.0 0.00 0.16 0.08 31 1003.8
20260507185223 63 340 0.0 1.0 0.00 0.16 0.08 30 1003.9
20260507184723 63 158 0.0 7.0 0.00 0.16 0.08 30 1003.9
20260507184222 63 8 0.0 7.0 0.00 0.16 0.08 31 1004.0
20260507183724 63 317 0.0 5.0 0.00 0.16 0.08 30 1004.0
20260507183224 63 28 0.0 4.0 0.00 0.16 0.08 30 1004.0
20260507182713 64 3 0.0 4.0 0.00 0.16 0.08 30 1003.9
20260507182216 63 336 0.0 6.0 0.00 0.16 0.08 30 1004.0
20260507181712 63 355 0.0 6.0 0.00 0.16 0.08 30 1004.1
20260507181210 64 318 1.0 8.0 0.00 0.16 0.08 30 1004.2
20260507180711 64 319 0.0 8.0 0.00 0.16 0.08 30 1004.2
20260507180212 64 266 0.0 3.0 0.00 0.16 0.08 35 1004.2
20260507175712 64 334 0.0 5.0 0.00 0.16 0.08 36 1004.2
20260507175211 64 184 0.0 5.0 0.00 0.16 0.08 35 1004.1
20260507174932 64 338 0.0 0.0 0.00 0.16 0.08 36 1004.3
20260507174200 64 332 0.0 4.0 0.00 0.16 0.08 36 1004.2
20260507173659 63 334 0.0 5.0 0.00 0.16 0.08 41 1004.1
20260507173200 63 22 0.0 5.0 0.00 0.16 0.08 39 1004.1
20260507172658 63 314 1.0 6.0 0.00 0.16 0.08 37 1004.3
20260507172158 63 315 1.0 6.0 0.00 0.16 0.08 39 1004.2
20260507171659 62 316 1.0 5.0 0.00 0.16 0.08 37 1004.3
20260507171159 62 203 1.0 8.0 0.00 0.16 0.08 42 1004.3
20260507170706 62 245 3.0 8.0 0.00 0.16 0.08 40 1004.6
20260507170200 62 355 2.0 5.0 0.00 0.16 0.08 42 1004.6
20260507165659 62 345 1.0 5.0 0.00 0.16 0.08 42 1004.7
20260507165157 63 293 0.0 6.0 0.00 0.16 0.08 44 1004.7
20260507164657 62 4 2.0 6.0 0.00 0.16 0.08 44 1004.6
20260507164200 63 350 2.0 5.0 0.00 0.16 0.08 42 1004.6
20260507163700 63 338 1.0 9.0 0.00 0.16 0.08 42 1004.5
20260507163200 63 0 1.0 9.0 0.00 0.16 0.08 47 1004.7
20260507162659 64 23 2.0 5.0 0.00 0.16 0.08 50 1004.7
20260507162428 62 331 3.0 9.0 0.00 0.16 0.08 48 1004.8
20260507161702 61 310 4.0 9.0 0.00 0.16 0.08 49 1004.8
20260507161158 61 334 4.0 9.0 0.00 0.16 0.08 51 1005.0
20260507160655 61 326 3.0 8.0 0.00 0.16 0.08 51 1004.9
20260507160153 61 335 1.0 5.0 0.00 0.16 0.08 53 1005.0
20260507155653 62 115 1.0 6.0 0.00 0.16 0.08 54 1005.0
20260507155158 60 240 1.0 6.0 0.00 0.16 0.08 63 1005.1
20260507154653 60 304 1.0 5.0 0.00 0.16 0.08 57 1005.1
20260507154154 60 268 2.0 6.0 0.00 0.16 0.08 55 1005.1
20260507153653 60 323 2.0 6.0 0.00 0.16 0.08 61 1005.2
20260507153152 59 270 2.0 5.0 0.00 0.16 0.08 62 1005.1
20260507152653 59 328 2.0 5.0 0.00 0.16 0.08 58 1005.2
20260507152153 60 328 1.0 5.0 0.00 0.16 0.08 60 1005.2
20260507151652 59 306 0.0 0.0 0.00 0.16 0.08 65 1005.3
20260507151152 58 345 0.0 3.0 0.00 0.16 0.08 65 1005.5
20260507150653 57 328 1.0 5.0 0.00 0.16 0.08 63 1005.5
20260507150153 58 326 0.0 5.0 0.00 0.16 0.08 63 1005.6
20260507145655 57 338 0.0 0.0 0.00 0.16 0.08 66 1005.5
20260507145153 57 309 0.0 0.0 0.00 0.16 0.08 65 1005.6
20260507144652 57 253 1.0 3.0 0.00 0.16 0.08 67 1005.7
20260507144152 57 325 2.0 5.0 0.00 0.16 0.08 67 1005.7
20260507143653 57 328 2.0 5.0 0.00 0.16 0.08 64 1005.8
20260507143150 57 313 2.0 7.0 0.00 0.16 0.08 63 1005.8
20260507142649 57 276 1.0 7.0 0.00 0.16 0.08 65 1005.7
20260507142149 57 251 1.0 7.0 0.00 0.16 0.08 67 1005.7
20260507141646 57 280 2.0 7.0 0.00 0.16 0.08 66 1005.8
20260507141144 56 211 2.0 6.0 0.00 0.16 0.08 66 1005.8
20260507140645 56 226 2.0 7.0 0.00 0.16 0.08 69 1005.8
20260507140406 56 244 2.0 7.0 0.00 0.16 0.08 68 1005.8
20260507135651 56 340 2.0 4.0 0.00 0.16 0.08 69 1005.8
20260507135143 55 350 2.0 7.0 0.00 0.16 0.08 72 1005.8
20260507134644 54 313 3.0 7.0 0.00 0.16 0.08 74 1005.7
20260507134143 53 324 2.0 5.0 0.00 0.16 0.08 77 1005.7
20260507133639 52 231 2.0 5.0 0.00 0.16 0.08 84 1005.7
20260507133140 51 355 2.0 4.0 0.00 0.16 0.08 87 1005.8
20260507132641 51 328 2.0 4.0 0.00 0.16 0.08 88 1005.9
20260507132359 51 330 2.0 4.0 0.00 0.16 0.08 89 1005.9
20260507131643 51 264 2.0 4.0 0.00 0.16 0.08 90 1006.0
20260507131135 50 319 2.0 5.0 0.00 0.16 0.08 91 1006.1
20260507130625 50 309 3.0 5.0 0.00 0.16 0.08 91 1006.0
20260507130119 50 326 2.0 4.0 0.00 0.16 0.08 92 1006.0
20260507125613 50 334 2.0 3.0 0.00 0.16 0.08 93 1006.0
20260507125059 49 335 2.0 3.0 0.00 0.16 0.08 93 1006.1
20260507124553 49 296 2.0 5.0 0.00 0.16 0.08 93 1006.2
20260507124047 49 243 2.0 5.0 0.00 0.16 0.08 93 1006.2
20260507123032 49 303 1.0 3.0 0.00 0.16 0.08 93 1006.3
20260507122525 49 303 2.0 3.0 0.00 0.16 0.08 93 1006.1
20260507122011 49 303 2.0 3.0 0.00 0.16 0.08 93 1006.0
20260507121505 49 302 2.0 3.0 0.00 0.16 0.08 93 1006.1
20260507120959 49 302 2.0 3.0 0.00 0.16 0.08 93 1006.2
20260507120450 49 302 2.0 3.0 0.00 0.16 0.08 93 1006.0
20260507115944 49 301 2.0 3.0 0.00 0.16 0.08 93 1005.9
20260507115439 49 301 2.0 3.0 0.00 0.16 0.08 93 1006.0
20260507114923 49 301 1.0 3.0 0.00 0.16 0.08 93 1006.1
20260507114417 49 290 1.0 3.0 0.00 0.16 0.08 93 1006.1
20260507113912 49 287 1.0 3.0 0.00 0.16 0.08 93 1006.0
20260507113401 49 273 0.0 0.0 0.00 0.16 0.08 93 1005.9
20260507112855 49 273 0.0 0.0 0.00 0.16 0.08 93 1006.0
20260507111836 49 272 0.0 0.0 0.00 0.16 0.08 92 1006.0
20260507111329 49 272 0.0 0.0 0.00 0.16 0.08 92 1005.9
20260507110824 49 272 0.0 0.0 0.00 0.16 0.08 92 1005.9
20260507105807 49 272 0.0 1.0 0.01 0.16 0.08 92 1005.7
20260507105523 49 272 0.0 2.0 0.01 0.16 0.08 92 1005.9
20260507104747 49 272 1.0 2.0 0.01 0.16 0.08 92 1005.9
20260507104241 49 272 1.0 2.0 0.01 0.16 0.08 92 1006.0
20260507104004 49 272 1.0 2.0 0.02 0.16 0.08 92 1006.0
20260507103235 49 272 1.0 2.0 0.02 0.16 0.08 92 1005.9
20260507103000 49 272 0.0 1.0 0.02 0.16 0.08 92 1005.6
20260507102235 49 276 0.0 1.0 0.02 0.16 0.08 92 1005.5
20260507101738 49 312 0.0 1.0 0.02 0.16 0.08 92 1005.5
20260507101236 49 315 0.0 1.0 0.04 0.16 0.08 92 1005.2
20260507100735 49 315 0.0 2.0 0.05 0.16 0.08 92 1005.2
20260507100232 49 315 1.0 2.0 0.04 0.15 0.07 92 1005.4
20260507095735 49 314 0.0 2.0 0.05 0.15 0.07 92 1005.3
20260507095232 49 314 0.0 2.0 0.05 0.15 0.07 91 1005.2
20260507094732 49 315 1.0 3.0 0.05 0.15 0.07 91 1005.1
20260507094232 49 315 1.0 4.0 0.05 0.15 0.07 91 1005.1
20260507093950 49 345 1.0 4.0 0.04 0.14 0.06 91 1005.0
20260507093228 49 311 1.0 4.0 0.04 0.14 0.06 91 1005.2
20260507092722 49 308 1.0 2.0 0.04 0.14 0.06 91 1005.4
20260507092229 50 308 1.0 3.0 0.05 0.14 0.06 91 1005.4
20260507091727 50 305 1.0 3.0 0.05 0.14 0.06 91 1005.3
20260507091243 50 286 1.0 2.0 0.03 0.12 0.04 91 1005.2
20260507090723 50 279 1.0 2.0 0.02 0.11 0.03 91 1005.4
20260507090223 50 261 1.0 2.0 0.02 0.11 0.03 91 1005.6
20260507085941 50 259 1.0 3.0 0.01 0.10 0.02 91 1005.7
20260507085218 50 255 1.0 3.0 0.01 0.10 0.02 91 1005.5
20260507084716 50 317 1.0 4.0 0.01 0.10 0.02 91 1005.4
20260507084218 51 313 1.0 3.0 0.01 0.10 0.02 91 1005.4
20260507083716 51 305 1.0 3.0 0.02 0.10 0.02 90 1005.4
20260507083218 51 305 1.0 3.0 0.02 0.10 0.02 90 1005.4
20260507082717 51 298 1.0 3.0 0.02 0.10 0.02 91 1005.3
20260507082445 51 299 1.0 3.0 0.01 0.09 0.01 90 1005.1
20260507081714 51 299 1.0 2.0 0.01 0.09 0.01 90 1005.0
20260507081215 51 299 1.0 3.0 0.01 0.09 0.01 90 1004.9
20260507080943 52 302 1.0 3.0 0.01 0.09 0.01 90 1004.9
20260507080219 52 330 1.0 4.0 0.01 0.09 0.01 90 1005.1
20260507075723 52 330 2.0 4.0 0.01 0.09 0.01 90 1005.2
20260507075216 53 311 2.0 4.0 0.01 0.09 0.01 90 1005.2
20260507074720 53 314 1.0 4.0 0.01 0.09 0.01 90 1005.1
20260507074443 53 302 1.0 6.0 0.01 0.09 0.01 90 1004.9
20260507073716 53 282 1.0 6.0 0.00 0.08 0.00 91 1004.9
20260507073211 53 321 0.0 3.0 0.00 0.08 0.00 91 1005.2
20260507072711 53 311 0.0 0.0 0.00 0.08 0.00 91 1005.0
20260507072213 53 309 0.0 0.0 0.00 0.08 0.00 91 1004.5
20260507071711 54 309 0.0 0.0 0.00 0.08 0.00 91 1004.2
20260507071204 54 308 0.0 0.0 0.00 0.08 0.00 91 1004.2
20260507070705 54 307 0.0 0.0 0.00 0.08 0.00 91 1004.3
20260507070450 54 299 0.0 0.0 0.00 0.08 0.00 92 1004.4
20260507065702 54 241 0.0 0.0 0.00 0.08 0.00 92 1004.4
20260507065203 54 312 0.0 0.0 0.00 0.08 0.00 92 1004.2
20260507064701 55 281 0.0 0.0 0.00 0.08 0.00 92 1004.3
20260507064200 55 259 0.0 0.0 0.00 0.08 0.00 92 1004.2
20260507063701 55 259 0.0 0.0 0.00 0.08 0.00 92 1004.3
20260507063203 55 328 0.0 0.0 0.00 0.08 0.00 92 1004.4
20260507062655 55 328 0.0 0.0 0.00 0.08 0.00 92 1004.4
20260507062420 55 327 0.0 0.0 0.00 0.08 0.00 93 1004.5
20260507061656 55 329 0.0 0.0 0.00 0.08 0.00 93 1004.4
20260507061153 55 329 0.0 0.0 0.00 0.08 0.00 93 1004.2
20260507060652 55 329 0.0 0.0 0.00 0.08 0.00 93 1004.2
20260507060152 56 329 0.0 0.0 0.00 0.08 0.00 93 1004.4
20260507055650 56 328 0.0 0.0 0.00 0.08 0.00 93 1004.4
20260507055424 56 328 0.0 0.0 0.00 0.08 0.00 93 1004.5
20260507054647 56 328 0.0 0.0 0.00 0.08 0.00 93 1004.5
20260507054147 56 331 0.0 0.0 0.00 0.08 0.00 93 1004.6
20260507053647 56 313 0.0 0.0 0.00 0.08 0.00 93 1004.7
20260507053149 57 313 0.0 0.0 0.00 0.08 0.00 93 1004.8
20260507052647 57 313 0.0 0.0 0.00 0.08 0.00 94 1004.7
20260507052151 57 313 0.0 0.0 0.00 0.08 0.00 94 1004.5
20260507051650 57 312 0.0 1.0 0.00 0.08 0.00 94 1004.5
20260507051148 57 323 0.0 1.0 0.00 0.08 0.00 94 1004.2
20260507050648 57 323 0.0 0.0 0.00 0.08 0.00 94 1004.3
20260507050147 57 323 1.0 4.0 0.00 0.08 0.00 94 1004.3
20260507045905 57 322 1.0 4.0 0.00 0.08 0.00 94 1004.4
20260507045141 58 329 1.0 3.0 0.00 0.08 0.00 94 1004.6
20260507044656 58 320 1.0 3.0 0.00 0.08 0.00 94 1004.6
20260507044141 58 317 1.0 3.0 0.00 0.08 0.00 94 1004.6
20260507043641 58 311 1.0 3.0 0.00 0.08 0.00 94 1004.5
20260507043141 58 321 0.0 2.0 0.00 0.08 0.00 94 1004.4
20260507042909 59 320 1.0 3.0 0.00 0.08 0.00 94 1004.3
20260507042143 59 328 1.0 3.0 0.00 0.08 0.00 94 1004.5
20260507041642 59 320 1.0 3.0 0.00 0.08 0.00 94 1004.4
20260507041142 59 300 1.0 3.0 0.00 0.08 0.00 94 1004.4
20260507040643 59 215 1.0 4.0 0.00 0.08 0.00 94 1004.5
20260507040143 59 232 0.0 4.0 0.00 0.08 0.00 94 1004.7
20260507035640 59 274 0.0 0.0 0.00 0.08 0.08 94 1004.8
20260507035141 59 253 0.0 0.0 0.00 0.08 0.08 94 1004.7
20260507034639 59 256 0.0 0.0 0.00 0.08 0.08 94 1004.5
20260507034141 59 195 1.0 4.0 0.00 0.08 0.08 94 1004.3
20260507033638 59 267 1.0 6.0 0.00 0.08 0.08 94 1004.4
20260507033401 59 247 1.0 6.0 0.00 0.08 0.08 94 1004.1
20260507032626 59 286 1.0 7.0 0.00 0.08 0.08 94 1004.2
20260507032345 59 265 1.0 7.0 0.00 0.08 0.08 94 1004.4
20260507031629 59 281 1.0 9.0 0.00 0.08 0.08 94 1004.1
20260507031125 59 230 2.0 11.0 0.00 0.08 0.08 94 1004.0
20260507030626 59 254 2.0 11.0 0.00 0.08 0.08 94 1003.8
20260507030126 59 237 2.0 8.0 0.00 0.08 0.08 94 1003.8
20260507025623 59 250 2.0 9.0 0.00 0.08 0.08 94 1003.7
20260507025123 59 232 2.0 9.0 0.00 0.08 0.08 94 1003.6
20260507024120 59 242 2.0 8.0 0.00 0.08 0.08 94 1003.7
20260507023622 59 215 2.0 10.0 0.00 0.08 0.08 94 1003.9
20260507022619 59 234 2.0 14.0 0.00 0.08 0.08 94 1003.9
20260507022115 59 231 2.0 14.0 0.00 0.08 0.08 94 1003.9
20260507021833 59 210 3.0 10.0 0.00 0.08 0.08 94 1003.8
20260507021338 59 189 2.0 10.0 0.00 0.08 0.08 94 1003.9
20260507020619 59 250 1.0 9.0 0.00 0.08 0.08 94 1003.8
20260507020115 59 205 1.0 7.0 0.00 0.08 0.08 94 1003.9
20260507015621 59 181 3.0 8.0 0.01 0.08 0.08 94 1003.8
20260507015115 59 200 3.0 13.0 0.01 0.08 0.08 94 1003.7
20260507014840 59 247 2.0 13.0 0.01 0.08 0.08 94 1003.7
20260507013833 59 218 3.0 9.0 0.01 0.08 0.08 94 1003.8
20260507013111 59 247 3.0 9.0 0.01 0.08 0.08 93 1003.8
20260507012828 59 226 3.0 9.0 0.01 0.08 0.08 93 1003.8
20260507012109 59 224 2.0 7.0 0.01 0.08 0.08 93 1003.9
20260507011612 59 269 2.0 9.0 0.01 0.08 0.08 93 1004.0
20260507011339 59 252 2.0 9.0 0.01 0.08 0.08 93 1004.0
20260507010609 59 247 2.0 9.0 0.01 0.08 0.08 93 1004.1
20260507005544 59 235 3.0 12.0 0.00 0.07 0.07 93 1004.1
20260507005251 59 234 2.0 12.0 0.00 0.07 0.07 93 1004.2
20260507004524 59 154 3.0 12.0 0.00 0.07 0.07 93 1004.2
20260507004242 59 213 3.0 12.0 0.00 0.07 0.07 93 1004.2
20260507003509 59 235 2.0 11.0 0.00 0.07 0.07 93 1004.0
20260507003002 59 238 2.0 11.0 0.00 0.07 0.07 93 1004.0
20260507002457 59 256 2.0 10.0 0.00 0.07 0.07 93 1004.0
20260507001943 59 208 2.0 11.0 0.01 0.07 0.07 93 1004.1
20260507001439 59 155 2.0 11.0 0.02 0.07 0.07 93 1004.1
20260507000930 59 253 3.0 7.0 0.02 0.07 0.07 93 1003.9
20260507000647 59 188 3.0 12.0 0.02 0.07 0.07 92 1003.7
20260506235914 60 187 2.0 12.0 0.02 0.07 0.07 92 1003.7
20260506235410 60 234 2.0 12.0 0.02 0.07 0.07 92 1003.8
20260506235116 60 249 1.0 6.0 0.02 0.07 0.07 92 1003.8
20260506234349 60 210 2.0 8.0 0.02 0.07 0.07 92 1003.8
20260506233843 60 234 2.0 11.0 0.02 0.07 0.07 92 1003.9
20260506233332 60 147 2.0 11.0 0.02 0.07 0.07 92 1003.8
20260506232826 60 231 1.0 8.0 0.03 0.07 0.07 92 1003.7
20260506232320 60 227 2.0 10.0 0.03 0.07 0.07 92 1003.8
20260506231312 60 222 3.0 10.0 0.01 0.05 0.05 92 1003.8
20260506231018 60 234 3.0 9.0 0.01 0.05 0.05 91 1003.7
20260506230251 60 227 3.0 9.0 0.01 0.05 0.05 92 1003.7
20260506230016 60 217 2.0 8.0 0.01 0.05 0.05 91 1003.7
20260506225510 60 181 3.0 12.0 0.01 0.05 0.05 91 1003.7
20260506224749 60 240 3.0 13.0 0.02 0.05 0.05 91 1003.9
20260506224249 60 276 2.0 13.0 0.02 0.05 0.05 91 1003.9
20260506223749 60 235 2.0 8.0 0.02 0.05 0.05 91 1003.9
20260506223248 60 207 2.0 9.0 0.02 0.05 0.05 91 1004.0
20260506222752 61 186 3.0 9.0 0.01 0.04 0.04 90 1004.0
20260506222251 61 229 2.0 7.0 0.01 0.04 0.04 90 1004.0
20260506221750 61 222 2.0 10.0 0.01 0.04 0.04 90 1004.2
20260506221251 61 213 2.0 10.0 0.01 0.04 0.04 90 1004.2
20260506220747 61 203 1.0 6.0 0.01 0.04 0.04 89 1004.2
20260506220248 61 206 1.0 9.0 0.01 0.04 0.04 89 1004.2
20260506215748 61 239 1.0 9.0 0.01 0.04 0.04 89 1004.2
20260506215511 61 232 0.0 8.0 0.01 0.04 0.04 89 1004.3
20260506214742 61 242 0.0 4.0 0.00 0.03 0.03 89 1004.5
20260506214242 61 219 0.0 4.0 0.00 0.03 0.03 88 1004.5
20260506213738 61 169 1.0 13.0 0.00 0.03 0.03 88 1004.6
20260506213238 62 188 1.0 14.0 0.00 0.03 0.03 88 1004.6
20260506212739 62 249 1.0 14.0 0.01 0.03 0.03 88 1004.7
20260506212238 62 217 0.0 9.0 0.01 0.03 0.03 88 1004.5
20260506211738 62 236 0.0 9.0 0.01 0.03 0.03 88 1004.5
20260506211507 62 245 0.0 7.0 0.01 0.03 0.03 88 1004.7
20260506210739 62 226 0.0 10.0 0.01 0.03 0.03 87 1004.6
20260506210501 62 251 1.0 10.0 0.01 0.03 0.03 87 1004.6
20260506205737 62 243 0.0 10.0 0.01 0.03 0.03 87 1004.6
20260506205235 62 230 0.0 12.0 0.01 0.03 0.03 87 1004.6
20260506204738 62 187 0.0 12.0 0.01 0.03 0.03 86 1004.7
20260506204235 62 237 0.0 6.0 0.02 0.03 0.03 86 1004.8
20260506203734 62 190 0.0 6.0 0.02 0.03 0.03 85 1004.9
20260506203459 62 233 0.0 0.0 0.02 0.03 0.03 85 1004.9
20260506202730 63 231 0.0 8.0 0.02 0.02 0.02 85 1004.9
20260506202455 63 174 0.0 8.0 0.02 0.02 0.02 84 1004.9
20260506201234 63 180 0.0 6.0 0.02 0.02 0.02 83 1004.8
20260506200729 64 161 0.0 6.0 0.02 0.02 0.02 83 1004.7
20260506200448 64 258 0.0 0.0 0.02 0.02 0.02 82 1004.7
20260506195730 64 160 0.0 6.0 0.02 0.02 0.02 82 1004.7
20260506195223 65 232 0.0 7.0 0.02 0.02 0.02 81 1004.6
20260506194721 65 235 0.0 7.0 0.02 0.02 0.02 81 1004.8
20260506194222 65 169 0.0 3.0 0.01 0.01 0.01 80 1004.7
20260506193722 66 230 0.0 2.0 0.01 0.01 0.01 78 1004.8
20260506193225 66 184 0.0 3.0 0.01 0.01 0.01 77 1005.0
20260506192720 67 235 0.0 3.0 0.00 0.00 0.00 75 1005.0
20260506192225 67 231 0.0 9.0 0.00 0.00 0.00 74 1005.1